Weather reports worldwide

Advertisment
Granada/Aeropuerto, Spain (8419): temperature & dewpoint: 16.03.2019 18:00:00 - 22.03.2019 18:00:00 (CET)Granada/Aeropuerto, Spain (8419): wind speed: 16.03.2019 18:00:00 - 22.03.2019 18:00:00 (CET)Granada/Aeropuerto, Spain (8419): wind direction: 16.03.2019 18:00:00 - 22.03.2019 18:00:00 (CET)Granada/Aeropuerto, Spain (8419): reduced air pressure: 16.03.2019 18:00:00 - 22.03.2019 18:00:00 (CET)Granada/Aeropuerto, Spain (8419): visibility: 16.03.2019 18:00:00 - 22.03.2019 18:00:00 (CET)
Date & Time tt [°C] td [°C] ff [km/h] ff [kn] dd ppp [hPa] vv [km]
22.03.2019 18:00:00 16,7 4,3 22 12 SSE 1020,8 30
22.03.2019 17:00:00 19,0 -1,6 2 1 ENE 1020,1 30
22.03.2019 16:00:00 18,6 -1,5 8 4 WSW 1020,7 25
22.03.2019 15:00:00 18,1 -1,0 4 2 SSE 1021,7 30
22.03.2019 14:00:00 16,4 -0,3 9 5 N 1022,6 20
22.03.2019 13:00:00 15,5 1,0 5 3 W 1023,4 22
22.03.2019 12:00:00 13,5 0,4 5 3 S 1024,7 25
22.03.2019 11:00:00 11,1 2,6 2 1 N 1025,9 20
22.03.2019 10:00:00 8,6 0,9 0 0 N 1026,8 -
22.03.2019 09:00:00 5,3 1,4 0 0 N 1027,7 20
22.03.2019 08:00:00 0,3 -0,6 0 0 N 1028,5 15
22.03.2019 07:00:00 0,2 -0,7 8 4 SSW 1028,0 25
22.03.2019 06:00:00 -0,3 -1,4 0 0 N 1028,0 11
22.03.2019 05:00:00 0,8 -0,3 4 2 S 1027,8 18
22.03.2019 04:00:00 1,5 0,0 0 0 N 1027,5 18
22.03.2019 03:00:00 2,3 1,0 0 0 N 1027,5 14
22.03.2019 02:00:00 2,9 1,1 2 1 SW 1027,8 22
22.03.2019 01:00:00 3,2 1,1 2 1 SSW 1028,0 23
22.03.2019 00:00:00 4,1 1,6 0 0 N 1027,8 29
21.03.2019 23:00:00 5,0 1,5 4 2 S 1027,5 22
21.03.2019 22:00:00 6,0 2,1 2 1 SW 1026,8 30
21.03.2019 21:00:00 8,4 2,5 4 2 W 1025,8 22
21.03.2019 20:00:00 11,0 2,8 - - - 1024,3 -
21.03.2019 19:00:00 13,2 2,8 18 10 S 1022,9 30
21.03.2019 18:00:00 14,6 2,1 22 12 SSW 1021,8 29
21.03.2019 17:00:00 16,1 1,8 24 13 SSW 1021,3 25
21.03.2019 16:00:00 16,7 -2,6 9 5 W 1021,3 30
21.03.2019 15:00:00 16,3 -3,8 5 3 ESE 1021,9 30
21.03.2019 14:00:00 15,5 -2,3 9 5 E 1022,8 30
21.03.2019 13:00:00 14,7 -2,7 5 3 SSW 1023,9 30
21.03.2019 12:00:00 13,6 -2,2 5 3 SE 1024,8 30
21.03.2019 11:00:00 11,8 -1,1 0 0 N 1025,5 21
21.03.2019 10:00:00 9,9 -1,2 4 2 SE 1026,3 30
21.03.2019 09:00:00 6,6 0,5 4 2 NW 1027,0 28
21.03.2019 08:00:00 1,2 -0,8 4 2 S 1028,2 22
21.03.2019 07:00:00 -0,4 -1,8 9 5 S 1028,1 22
21.03.2019 06:00:00 1,1 -0,8 5 3 SW 1027,3 30
21.03.2019 05:00:00 0,9 0,0 9 5 WNW 1027,2 28
21.03.2019 04:00:00 1,4 -0,1 2 1 S 1027,2 21
21.03.2019 03:00:00 1,8 0,6 2 1 WSW 1027,8 29
21.03.2019 02:00:00 3,7 1,7 0 0 N 1027,9 30
21.03.2019 01:00:00 5,3 3,0 2 1 W 1027,4 30
21.03.2019 00:00:00 5,3 2,6 0 0 N 1027,9 30
20.03.2019 23:00:00 5,6 2,2 0 0 N 1027,9 30
20.03.2019 22:00:00 6,6 2,3 0 0 N 1027,5 30
20.03.2019 21:00:00 7,7 2,9 5 3 WSW 1026,6 30
20.03.2019 20:00:00 9,1 3,1 8 4 S 1025,3 30
20.03.2019 19:00:00 10,8 3,3 16 9 S 1024,4 30
20.03.2019 18:00:00 12,2 2,9 22 12 S 1023,3 30
20.03.2019 17:00:00 13,9 2,7 11 6 SSW 1022,4 30
20.03.2019 16:00:00 14,0 2,9 15 8 SW 1022,6 30
20.03.2019 15:00:00 13,5 2,5 13 7 S 1023,2 30
20.03.2019 14:00:00 14,7 1,5 5 3 S 1023,3 30
20.03.2019 13:00:00 14,8 2,3 4 2 ESE 1023,9 30
20.03.2019 12:00:00 14,0 3,4 0 0 N 1024,4 27
20.03.2019 11:00:00 12,1 4,3 2 1 NE 1025,4 17
20.03.2019 10:00:00 9,4 3,5 0 0 N 1026,1 20
20.03.2019 09:00:00 5,0 2,2 0 0 N 1027,1 16
20.03.2019 08:00:00 2,3 1,4 0 0 N 1027,3 20
20.03.2019 07:00:00 0,5 -0,5 0 0 N 1027,0 15
20.03.2019 06:00:00 1,3 0,3 4 2 SW 1026,5 14
20.03.2019 05:00:00 1,6 0,3 8 4 SW 1026,3 17
20.03.2019 04:00:00 1,9 0,0 8 4 SSW 1026,4 23
20.03.2019 03:00:00 2,8 0,7 0 0 N 1026,6 26
20.03.2019 02:00:00 4,0 1,2 0 0 N 1026,4 23
20.03.2019 01:00:00 4,0 0,4 4 2 SSE 1026,4 26
20.03.2019 00:00:00 5,3 -0,3 5 3 N 1025,9 30
19.03.2019 23:00:00 5,6 -0,7 4 2 WSW 1025,4 30
19.03.2019 22:00:00 7,4 -1,8 0 0 N 1024,3 30
19.03.2019 21:00:00 11,5 -2,7 0 0 N 1022,7 30
19.03.2019 20:00:00 12,9 -2,6 9 5 NNE 1021,8 30
19.03.2019 19:00:00 15,3 -2,2 15 8 NE 1020,4 30
19.03.2019 18:00:00 16,2 -1,1 22 12 NNE 1019,3 30
19.03.2019 17:00:00 17,3 -0,8 24 13 NNE 1018,8 30
19.03.2019 16:00:00 17,6 -0,4 21 11 ENE 1018,5 30
19.03.2019 15:00:00 18,6 -1,3 18 10 NNE 1018,3 30
19.03.2019 14:00:00 18,2 -2,8 21 11 NNE 1018,9 25
19.03.2019 13:00:00 17,3 -2,5 13 7 ENE 1020,1 25
19.03.2019 12:00:00 16,2 -0,9 11 6 NE 1020,7 30
19.03.2019 11:00:00 14,0 3,8 9 5 NNW 1021,5 25
19.03.2019 10:00:00 10,7 7,4 4 2 WNW 1022,7 12
19.03.2019 09:00:00 6,5 5,0 4 2 SSW 1024,0 14
19.03.2019 08:00:00 5,3 4,2 0 0 N 1023,9 10
19.03.2019 07:00:00 5,1 4,2 2 1 W 1024,0 12
19.03.2019 06:00:00 4,9 4,2 2 1 NW 1023,9 9
19.03.2019 05:00:00 4,8 4,1 0 0 N 1023,7 12
19.03.2019 04:00:00 5,2 4,5 4 2 W 1024,0 13
19.03.2019 03:00:00 5,3 4,4 5 3 SW 1024,3 19
19.03.2019 02:00:00 6,5 5,6 0 0 N 1024,4 17
19.03.2019 01:00:00 6,8 5,3 4 2 S 1024,7 16
19.03.2019 00:00:00 8,1 5,5 0 0 N 1024,2 19
18.03.2019 23:00:00 9,1 5,8 0 0 N 1023,6 24
18.03.2019 22:00:00 10,6 6,3 4 2 ESE 1023,1 28
18.03.2019 21:00:00 12,4 7,1 11 6 SSW 1022,0 21
18.03.2019 20:00:00 13,7 7,5 8 4 SSW 1020,8 19
18.03.2019 19:00:00 15,6 7,6 18 10 SW 1019,7 21
18.03.2019 18:00:00 16,3 8,0 18 10 SW 1018,9 22
18.03.2019 17:00:00 17,8 7,5 18 10 WSW 1018,1 21
18.03.2019 16:00:00 18,5 6,6 13 7 NW 1018,0 27
18.03.2019 15:00:00 19,0 5,1 11 6 W 1018,2 30
18.03.2019 14:00:00 18,7 6,1 9 5 WNW 1018,9 17
18.03.2019 13:00:00 18,2 5,8 5 3 NW 1019,6 18
18.03.2019 12:00:00 16,2 4,5 2 1 W 1020,6 17
18.03.2019 11:00:00 14,1 4,1 0 0 N 1021,3 16
18.03.2019 10:00:00 9,8 3,3 4 2 NW 1022,1 21
18.03.2019 09:00:00 6,7 2,9 5 3 NW 1022,3 13
18.03.2019 08:00:00 2,6 1,4 4 2 SSW 1022,6 16
18.03.2019 07:00:00 2,3 0,9 4 2 SW 1021,9 16
18.03.2019 06:00:00 2,2 0,1 0 0 N 1021,4 10
18.03.2019 05:00:00 3,1 1,0 0 0 N 1021,2 19
18.03.2019 04:00:00 4,1 1,0 0 0 N 1020,9 19
18.03.2019 03:00:00 5,0 1,3 4 2 SW 1020,9 18
18.03.2019 02:00:00 5,9 1,0 0 0 N 1020,8 16
18.03.2019 01:00:00 7,3 1,4 0 0 N 1020,1 23
18.03.2019 00:00:00 8,3 1,5 9 5 SSW 1020,3 16
17.03.2019 23:00:00 9,7 1,8 4 2 SE 1019,8 20
17.03.2019 22:00:00 12,0 1,9 4 2 SW 1019,2 19
17.03.2019 21:00:00 12,5 0,6 0 0 N 1018,9 22
17.03.2019 20:00:00 14,9 -0,1 0 0 N 1017,8 21
17.03.2019 19:00:00 17,9 -0,5 13 7 NW 1016,8 25
17.03.2019 18:00:00 20,7 -2,9 18 10 WNW 1016,0 23
17.03.2019 17:00:00 21,7 -2,3 18 10 NNW 1015,8 17
17.03.2019 16:00:00 22,1 -2,8 24 13 NNW 1016,2 30
17.03.2019 15:00:00 22,0 -1,8 18 10 N 1016,6 27
17.03.2019 14:00:00 21,3 -1,1 24 13 N 1017,8 30
17.03.2019 13:00:00 19,7 3,1 4 2 N 1019,0 30
17.03.2019 12:00:00 17,9 4,1 0 0 N 1020,1 27
17.03.2019 11:00:00 14,2 2,5 0 0 N 1021,5 23
17.03.2019 10:00:00 10,8 1,5 0 0 N 1022,2 30
17.03.2019 09:00:00 6,6 0,6 0 0 N 1022,8 30
17.03.2019 08:00:00 1,9 -0,2 5 3 WSW 1023,3 30
17.03.2019 07:00:00 1,5 -0,9 0 0 N 1023,1 30
17.03.2019 06:00:00 2,4 -0,7 0 0 N 1022,8 30
17.03.2019 05:00:00 3,2 -0,3 2 1 W 1022,2 30
17.03.2019 04:00:00 4,0 0,0 4 2 SW 1021,8 30
17.03.2019 03:00:00 4,0 -0,8 8 4 WSW 1022,1 30
17.03.2019 02:00:00 5,3 -1,4 5 3 SSW 1022,1 30
17.03.2019 01:00:00 5,9 -1,5 0 0 N 1022,4 30
17.03.2019 00:00:00 8,4 -2,3 5 3 SSW 1021,9 30
16.03.2019 23:00:00 10,0 -2,1 0 0 N 1021,6 30
16.03.2019 22:00:00 12,5 -2,2 2 1 S 1020,9 30
16.03.2019 21:00:00 13,5 -2,9 0 0 N 1020,1 30
16.03.2019 20:00:00 16,6 -2,0 16 9 SSW 1018,6 30
16.03.2019 19:00:00 21,3 -1,3 11 6 SW 1017,2 30
16.03.2019 18:00:00 24,8 -3,4 4 2 WNW 1016,3 30

tt = temperature
td = dewpoint
ff = wind speed
dd = wind direction
ppp = reduced air pressure
vv = visibility

Next stations